Overview Statistics Trail Chart Weather Telemetry Raw packets
 

This is the latest recevied weather packets stored in our database for station/object MB7UUE. If no packets are shown the sender has not sent any weather packets the latest 10 day(s).

<< 34 35 36 37 38 39 40 >>
Time Temp. Humidity Pressure Rain* Wind** Luminosity Snow
1788002640 18.33° C 84% 1004.5 hPa 2.29 mm - - -
1788001500 18.33° C 84% 1004.9 hPa 1.02 mm - - -
1788000966 18.89° C 84% 1005 hPa 1.02 mm - - -
1788000959 18.89° C 85% 1005 hPa 1.02 mm - - -
1787999827 18.89° C 85% 1005.4 hPa 0.76 mm - - -
1787999818 18.89° C 85% 1005.4 hPa 0.76 mm - - -
1787998686 18.89° C 85% 1005.5 hPa 0.51 mm - - -
1787998678 18.89° C 85% 1005.5 hPa 0.51 mm - - -
1787997547 19.44° C 85% 1005.7 hPa 0.25 mm - - -
1787997537 19.44° C 86% 1005.7 hPa 0.25 mm - - -
1787996407 18.89° C 86% 1005.6 hPa 0.76 mm - - -
1787996397 18.89° C 86% 1005.6 hPa 0.76 mm - - -
1787995266 18.33° C 86% 1006.1 hPa 1.27 mm - - -
1787995258 18.33° C 86% 1006.1 hPa 1.27 mm - - -
1787994127 18.33° C 85% 1006.4 hPa 1.02 mm - - -
1787994117 18.33° C 85% 1006.4 hPa 1.02 mm - - -
1787992987 18.33° C 82% 1006.6 hPa 0.76 mm - - -
1787992977 18.33° C 82% 1006.5 hPa 0.51 mm - - -
1787991846 18.89° C 77% 1006.5 hPa 0 mm - - -
1787991838 18.89° C 76% 1006.5 hPa 0 mm - - -
1787990707 18.89° C 76% 1006.5 hPa 0 mm - - -
1787990699 18.89° C 76% 1006.5 hPa 0 mm - - -
1787989567 18.89° C 78% 1006.6 hPa 0 mm - - -
1787989557 18.89° C 78% 1006.6 hPa 0 mm - - -
1787988426 18.33° C 78% 1006.6 hPa 0 mm - - -

* Rain latest hour (hover to see other rain measurements)
** Current wind speed in m/s (hover to see current wind gust speed)